Location: Limerick
(52.6800°N, 8.6400°W)
Time: 17:06:58
(UTC+01:00)

Amateur Radio Satellites - All Passes

Search period start: 05 May 2016 16:36
Search period end: 06 May 2016 16:36
Location: Limerick, 52.6800°N, 8.6400°W

Satellite Date Start Highest point End Downlink Frequencies (MHz)
Time Altitude Azimuth
M-CUBED/EXP-1 PRIME 05 May 17:07:24 17:08:29 11° 42° (NE) 17:09:34 437.505
O/OREOS (USA 219) 05 May 17:10:54 17:14:51 28° 314° (NW) 17:18:49 437.305
ITAMSAT 1 05 May 17:11:05 17:13:37 14° 275° (W) 17:16:10 435.822/435.867
AO-7 05 May 17:12:25 17:20:12 43° 262° (W) 17:28:03 29.400- 29.500
ITUPSAT 1 05 May 17:13:16 17:17:32 33° 298° (WNW) 17:21:48 437.325
GOMX 1 05 May 17:15:12 17:17:12 12° 46° (NE) 17:19:13 467.674
CUTE-I 05 May 17:18:22 17:22:20 22° 54° (NE) 17:26:20 437.470
DANDE 05 May 17:20:10 17:23:26 43° 292° (WNW) 17:27:42 436.750
SO-50 05 May 17:21:20 17:23:42 14° 250° (WSW) 17:26:02 436.795
SWISSCUBE 05 May 17:21:21 17:25:20 27° 300° (WNW) 17:29:19 437.505
AUBIESAT-1 05 May 17:22:55 17:24:32 12° 44° (NE) 17:26:08 437.475
KKS-1 05 May 17:35:21 17:39:53 84° 105° (ESE) 17:44:21 437.445
AO-85 05 May 17:39:12 17:43:11 21° 360° (N) 17:47:00 145.980
PCSat 05 May 17:40:19 17:45:38 53° 317° (NW) 17:50:59 145.827
STARS 05 May 17:44:20 17:48:43 58° 102° (ESE) 17:53:03 437.465
Cosmos 2491 05 May 17:48:48 17:57:31 57° 71° (ENE) 18:06:08 435.465 / 435.565
NOAA 15 05 May 17:49:58 17:55:01 47° 65° (ENE) 18:00:06 137.62
BRITE-PL 05 May 17:52:34 17:57:06 33° 61° (ENE) 18:01:55 437.365/2234.400
BEESAT 3 05 May 17:52:58 17:53:31 10° 110° (ESE) 17:54:03 437.485
NOAA 18 05 May 17:53:36 17:58:52 48° 64° (ENE) 18:04:08 137.9125
BEESAT 05 May 17:54:50 17:57:56 17° 306° (NW) 18:01:01 436.000
CUSAT 1 05 May 17:55:35 17:58:35 17° 312° (NW) 18:02:04 437.405
MOZHAYETS 4 05 May 17:59:01 18:03:37 85° 287° (WNW) 18:08:12
Cubesat XI-IV 05 May 18:02:21 18:07:19 42° 64° (ENE) 18:12:19 437.490
HORYU 2 05 May 18:07:06 18:11:05 31° 264° (W) 18:15:05 437.375
YUBILEINY 05 May 18:08:53 18:15:35 26° 77° (ENE) 18:22:17 435.215
LilacSat-2 05 May 18:12:13 18:15:45 34° 67° (ENE) 18:19:17 437.200
CUBESAT XI-V 05 May 18:15:12 18:18:58 23° 91° (E) 18:22:43 437.345
DOVE 4 05 May 18:31:52 18:35:56 23° 57° (ENE) 18:40:05 437.250
HO-68 05 May 18:35:28 18:40:51 24° 46° (NE) 18:46:15 435.675
M-CUBED/EXP-1 PRIME 05 May 18:37:38 18:42:07 45° 61° (ENE) 18:46:26 437.505
GOMX 1 05 May 18:49:01 18:54:03 49° 67° (ENE) 18:59:19 467.674
AUBIESAT-1 05 May 18:53:44 18:58:12 52° 63° (ENE) 19:02:31 437.475
CINEMA 3 05 May 18:55:40 18:58:26 15° 53° (NE) 19:01:09 145.822/145.860
CUTE-I 05 May 18:56:31 19:01:51 81° 255° (WSW) 19:07:13 437.470
KKS-1 05 May 19:13:00 19:15:53 17° 305° (NW) 19:18:47 437.445
AO-85 05 May 19:20:37 19:25:10 30° 24° (NNE) 19:29:23 145.980
STARS 05 May 19:21:20 19:24:45 22° 301° (WNW) 19:28:09 437.465
PCSat 05 May 19:26:02 19:30:13 22° 341° (NNW) 19:34:26 145.827
BEESAT 3 05 May 19:26:32 19:30:27 67° 130° (SE) 19:34:24 437.485
NOAA 15 05 May 19:30:14 19:34:59 33° 265° (W) 19:39:46 137.62
BRITE-PL 05 May 19:30:29 19:35:23 49° 263° (W) 19:40:41 437.365/2234.400
NOAA 18 05 May 19:34:43 19:39:42 34° 264° (W) 19:44:43 137.9125
MOZHAYETS 4 05 May 19:37:29 19:40:08 16° 306° (NW) 19:42:48
CANX-2 05 May 19:38:39 19:42:08 26° 63° (ENE) 19:45:38 2200.000
BEESAT 2 05 May 19:39:33 19:43:27 57° 128° (SE) 19:47:24 435.950
Cubesat XI-IV 05 May 19:42:33 19:47:29 38° 263° (W) 19:52:26 437.490
Cosmos 2491 05 May 19:46:03 19:54:12 44° 274° (W) 20:02:16 435.465 / 435.565
LilacSat-2 05 May 19:46:48 19:50:08 27° 266° (W) 19:53:28 437.200
Cosmos 2504 05 May 19:48:23 19:53:49 24° 79° (E) 19:59:14 435.465 / 435.565
CUBESAT XI-V 05 May 19:52:05 19:56:41 56° 290° (WNW) 20:01:17 437.345
AIST 2 05 May 20:01:16 20:02:05 10° 109° (ESE) 20:02:55 435.215
YUBILEINY 05 May 20:02:33 20:11:19 89° 283° (WNW) 20:20:05 435.215
DOVE 4 05 May 20:07:54 20:13:07 75° 256° (WSW) 20:18:29 437.250
CUTE 1.7 + AOD 2 05 May 20:10:14 20:14:14 43° 68° (ENE) 20:18:14 437.475
Oscar 11 05 May 20:10:28 20:12:23 13° 53° (NE) 20:14:18 145.826/435.025
M-CUBED/EXP-1 PRIME 05 May 20:12:36 20:16:45 31° 259° (WSW) 20:20:49 437.505
HO-68 05 May 20:20:28 20:27:37 77° 68° (ENE) 20:34:48 435.675
FUNcube-1 05 May 20:25:41 20:28:12 15° 56° (NE) 20:30:42 145.935
GOMX 1 05 May 20:27:40 20:32:20 32° 268° (W) 20:37:13 467.674
AUBIESAT-1 05 May 20:29:02 20:32:53 26° 260° (W) 20:36:39 437.475
CINEMA 3 05 May 20:29:46 20:34:46 71° 72° (ENE) 20:39:43 145.822/145.860
COMPASS 1 05 May 20:30:05 20:33:55 38° 67° (ENE) 20:37:46 437.405
SEEDS 05 May 20:32:00 20:36:03 52° 70° (ENE) 20:40:08 437.485
CUTE-I 05 May 20:39:50 20:42:46 15° 275° (W) 20:45:44 437.470
STRAND 1 05 May 20:43:25 20:48:26 51° 100° (E) 20:53:24 437.568
UWE-3 05 May 20:44:03 20:47:59 29° 63° (ENE) 20:51:51 435.000/436.395/437.385
RS-15 05 May 20:46:57 20:55:17 24° 99° (E) 21:03:53 29.354- 29.394
CUBEBUG 2 05 May 20:57:14 21:01:45 49° 69° (ENE) 21:06:11 437.445
AAUSAT CUBESAT 2 05 May 20:57:41 21:01:43 58° 71° (ENE) 21:05:47 437.432
AO-85 05 May 21:01:15 21:06:17 87° 228° (SW) 21:10:50 145.980
BEESAT 3 05 May 21:05:04 21:08:31 27° 330° (NNW) 21:11:58 437.485
ZACube-1 05 May 21:07:47 21:11:46 33° 65° (ENE) 21:15:43 437.345
PCSat 05 May 21:11:50 21:15:35 18° 7° (N) 21:19:20 145.827
CANX-2 05 May 21:13:48 21:17:50 43° 262° (W) 21:21:53 2200.000
BEESAT 2 05 May 21:17:59 21:21:34 30° 328° (NNW) 21:25:10 435.950
CUBESAT XI-V 05 May 21:31:41 21:33:08 11° 311° (NW) 21:34:35 437.345
PRISM 05 May 21:32:12 21:36:02 34° 97° (E) 21:39:51 437.425
AIST 2 05 May 21:35:41 21:39:47 66° 128° (SE) 21:43:55 435.215
Cosmos 2504 05 May 21:39:08 21:46:20 81° 282° (WNW) 21:53:37 435.465 / 435.565
Oscar 11 05 May 21:43:29 21:47:47 74° 73° (ENE) 21:52:06 145.826/435.025
HUMSAT D 05 May 21:45:27 21:48:45 23° 61° (ENE) 21:52:02 437.325/437.525
DELFI C3 05 May 21:46:40 21:50:23 41° 68° (ENE) 21:54:07 145.870
CUTE 1.7 + AOD 2 05 May 21:46:47 21:50:16 25° 267° (W) 21:53:46 437.475
DOVE 4 05 May 21:49:05 21:51:44 14° 277° (W) 21:54:26 437.250
FUNcube-1 05 May 21:59:23 22:03:52 87° 72° (ENE) 22:08:16 145.935
YUBILEINY 05 May 22:02:16 22:09:27 28° 305° (NW) 22:16:40 435.215
COMPASS 1 05 May 22:06:05 22:09:36 27° 266° (W) 22:13:10 437.405
CINEMA 3 05 May 22:08:40 22:12:23 21° 271° (W) 22:16:05 145.822/145.860
SEEDS 05 May 22:08:58 22:12:05 20° 269° (W) 22:15:13 437.485
HO-68 05 May 22:10:07 22:16:04 28° 269° (W) 22:22:03 435.675
AISAT 05 May 22:11:52 22:13:01 11° 49° (NE) 22:14:10 437.250
O/OREOS (USA 219) 05 May 22:17:14 22:19:28 13° 31° (NNE) 22:21:40 437.305
UWE-3 05 May 22:19:55 22:24:19 44° 262° (W) 22:28:38 435.000/436.395/437.385
STRAND 1 05 May 22:22:59 22:27:25 30° 300° (WNW) 22:31:49 437.568
50 SAT 05 May 22:26:56 22:27:32 10° 55° (NE) 22:28:08 437.505
CUBEBUG 2 05 May 22:34:39 22:38:36 26° 267° (W) 22:42:28 437.445
AAUSAT CUBESAT 2 05 May 22:34:43 22:37:35 18° 270° (W) 22:40:29 437.432
CUBEBUG 1 05 May 22:38:10 22:40:50 16° 55° (NE) 22:43:30 437.445
ESTCUBE 1 05 May 22:40:20 22:43:43 21° 58° (ENE) 22:47:07 437.505/2401.250
AO-85 05 May 22:42:58 22:45:59 17° 250° (WSW) 22:48:51 145.980
ZACube-1 05 May 22:43:53 22:48:03 36° 264° (W) 22:52:08 437.345
BEESAT 3 05 May 22:45:07 22:47:25 15° 354° (N) 22:49:44 437.485
RS-15 05 May 22:54:14 23:05:34 74° 125° (SE) 23:17:35 29.354- 29.394
UNISAT 6 05 May 22:55:21 22:58:00 16° 88° (E) 23:00:36 437.425
PCSat 05 May 22:55:44 23:00:38 33° 32° (NNE) 23:05:31 145.827
BEESAT 2 05 May 22:58:08 23:00:34 15° 352° (N) 23:03:00 435.950
DX 1 05 May 22:59:03 23:02:23 22° 58° (ENE) 23:05:43 434.975-435.025
UKube-1 05 May 23:00:04 23:03:07 19° 57° (ENE) 23:06:10 .
PRISM 05 May 23:07:37 23:11:20 32° 296° (WNW) 23:15:03 437.425
TIGRISAT 05 May 23:11:21 23:14:38 21° 91° (E) 23:17:51 435.000
VELOX 1 05 May 23:12:19 23:16:10 29° 62° (ENE) 23:20:03 145.980
AIST 2 05 May 23:14:56 23:18:36 29° 330° (NNW) 23:22:17 435.215
HUMSAT D 05 May 23:20:03 23:24:09 50° 260° (W) 23:28:12 437.325/437.525
Oscar 11 05 May 23:21:51 23:24:28 16° 272° (W) 23:27:04 145.826/435.025
DELFI C3 05 May 23:22:15 23:25:26 23° 267° (W) 23:28:39 145.870
SPROUT 05 May 23:24:20 23:27:11 17° 57° (ENE) 23:30:01 437.525
Cosmos 2504 05 May 23:35:48 23:41:03 21° 307° (NW) 23:46:22 435.465 / 435.565
ANTELSAT 05 May 23:36:35 23:40:36 36° 96° (E) 23:44:33 437.575/2403.000
FUNcube-1 05 May 23:38:25 23:40:43 14° 273° (W) 23:43:00 145.935
AISAT 05 May 23:44:13 23:48:36 56° 69° (ENE) 23:53:00 437.250
TISAT 1 05 May 23:48:28 23:49:47 11° 51° (NE) 23:51:07 437.305
AIST 1 05 May 23:48:48 23:50:58 14° 81° (E) 23:53:10
Cosmos 2499 05 May 23:50:04 23:51:29 11° 67° (ENE) 23:52:53 435.465 / 435.565
GONETS M04 05 May 23:53:26 00:00:29 28° 78° (ENE) 00:07:32
O/OREOS (USA 219) 05 May 23:55:35 00:00:01 49° 54° (NE) 00:04:23 437.305
50 SAT 05 May 23:57:02 00:00:40 76° 75° (ENE) 00:04:20 437.505
CUBEBUG 1 06 May 00:12:06 00:16:31 89° 255° (WSW) 00:20:59 437.445
ESTCUBE 1 06 May 00:15:42 00:20:09 63° 258° (WSW) 00:24:39 437.505/2401.250
BEESAT 3 06 May 00:23:45 00:26:33 18° 18° (NNE) 00:29:20 437.485
DANDE 06 May 00:25:37 00:27:54 12° 47° (NE) 00:30:21 436.750
DUCHIFAT 1 06 May 00:25:55 00:29:22 24° 93° (E) 00:32:46 145.980
QB50P2 06 May 00:30:36 00:34:21 29° 95° (E) 00:38:05 145.880/145.840
UNISAT 6 06 May 00:30:55 00:35:16 73° 288° (WNW) 00:39:32 437.425
POLYITAN 1 06 May 00:32:48 00:36:34 30° 95° (E) 00:40:17 437.675
DX 1 06 May 00:33:54 00:38:13 60° 258° (WSW) 00:42:35 434.975-435.025
UKube-1 06 May 00:34:24 00:38:44 70° 257° (WSW) 00:43:05 .
POPSAT HIP 1 06 May 00:34:31 00:38:18 30° 95° (E) 00:42:02 437.405
BEESAT 2 06 May 00:37:08 00:39:52 17° 16° (NNE) 00:42:36 435.950
QB50P1 06 May 00:37:23 00:41:14 32° 96° (E) 00:45:03 145.935-145.965
PCSat 06 May 00:39:05 00:44:33 75° 235° (SW) 00:49:57 145.827
TIGRISAT 06 May 00:47:26 00:51:41 54° 290° (WNW) 00:55:50 435.000
VELOX 1 06 May 00:48:18 00:52:32 42° 262° (W) 00:56:48 145.980
BUGSAT 1 06 May 00:54:31 00:57:56 23° 93° (E) 01:01:19 437.445
CUSAT 1 06 May 00:54:48 01:00:56 30° 60° (ENE) 01:07:45 437.405
AIST 2 06 May 00:55:42 00:58:19 16° 354° (N) 01:00:54 435.215
SPROUT 06 May 00:58:18 01:02:39 77° 257° (WSW) 01:07:00 437.525
RS-15 06 May 01:07:20 01:18:48 57° 334° (NNW) 01:30:52 29.354- 29.394
NANOSAT C BR1 06 May 01:10:12 01:14:26 64° 102° (ESE) 01:18:37 145.865
ITUPSAT 1 06 May 01:12:05 01:15:11 17° 54° (NE) 01:18:17 437.325
ANTELSAT 06 May 01:13:27 01:17:18 31° 296° (WNW) 01:21:05 437.575/2403.000
SWISSCUBE 06 May 01:19:12 01:22:44 21° 56° (ENE) 01:26:16 437.505
TISAT 1 06 May 01:20:26 01:24:38 64° 72° (ENE) 01:28:53 437.305
AISAT 06 May 01:21:59 01:25:25 22° 269° (W) 01:28:54 437.250
AIST 1 06 May 01:23:35 01:27:56 82° 282° (WNW) 01:32:21
50 SAT 06 May 01:33:42 01:34:59 12° 272° (W) 01:36:17 437.505
O/OREOS (USA 219) 06 May 01:35:24 01:39:12 27° 255° (WSW) 01:42:58 437.305
Cosmos 2499 06 May 01:35:58 01:42:43 53° 91° (E) 01:49:41 435.465 / 435.565
GONETS M04 06 May 01:47:28 01:56:22 84° 282° (WNW) 02:05:15
BEESAT 06 May 01:51:05 01:55:19 33° 62° (ENE) 01:59:34 436.000
CUBEBUG 1 06 May 01:51:23 01:53:30 13° 274° (W) 01:55:36 437.445
BEESAT 3 06 May 02:01:13 02:05:06 50° 40° (NE) 02:08:57 437.485
DUCHIFAT 1 06 May 02:01:15 02:05:18 46° 292° (WNW) 02:09:19 145.980
JAS-2 06 May 02:01:58 02:09:20 43° 94° (E) 02:16:42 435.910
DANDE 06 May 02:06:13 02:12:16 43° 68° (ENE) 02:19:39 436.750
QB50P2 06 May 02:06:19 02:10:15 37° 294° (WNW) 02:14:08 145.880/145.840
POLYITAN 1 06 May 02:08:33 02:12:27 36° 294° (WNW) 02:16:19 437.675
UNISAT 6 06 May 02:09:22 02:11:14 13° 308° (NW) 02:13:07 437.425
Oscar 19 06 May 02:09:33 02:13:42 23° 91° (E) 02:17:49 437.125/150
POPSAT HIP 1 06 May 02:10:15 02:14:09 36° 294° (WNW) 02:18:02 437.405
QB50P1 06 May 02:13:12 02:17:03 34° 295° (WNW) 02:20:51 145.935-145.965
BEESAT 2 06 May 02:14:47 02:18:39 44° 38° (NE) 02:22:29 435.950
PCSat 06 May 02:23:59 02:27:05 16° 255° (WSW) 02:30:09 145.827
BUGSAT 1 06 May 02:29:30 02:33:33 45° 292° (WNW) 02:37:31 437.445
Gurwin Techsat 1B 06 May 02:30:32 02:33:54 17° 86° (E) 02:37:15 435.225
AIST 2 06 May 02:35:12 02:38:15 19° 18° (NNE) 02:41:17 435.215
CUSAT 1 06 May 02:36:34 02:43:45 83° 259° (W) 02:51:50 437.405
SPROUT 06 May 02:38:18 02:39:22 11° 276° (W) 02:40:27 437.525
NANOSAT C BR1 06 May 02:46:44 02:49:47 19° 302° (WNW) 02:52:49 145.865
ITUPSAT 1 06 May 02:47:38 02:52:25 90° 247° (WSW) 02:57:13 437.325
SWISSCUBE 06 May 02:55:20 03:00:05 71° 256° (WSW) 03:04:51 437.505
TISAT 1 06 May 02:57:49 03:00:44 18° 270° (W) 03:03:40 437.305
KKS-1 06 May 03:03:32 03:07:11 25° 60° (ENE) 03:10:51 437.445
AIST 1 06 May 03:04:18 03:06:20 13° 302° (WNW) 03:08:23
STARS 06 May 03:12:00 03:15:01 18° 56° (NE) 03:18:03 437.465
AO-7 06 May 03:17:26 03:19:09 11° 77° (ENE) 03:20:52 29.400- 29.500
RS-15 06 May 03:22:36 03:34:04 48° 7° (N) 03:45:54 29.354- 29.394
BEESAT 06 May 03:28:33 03:33:03 41° 262° (W) 03:37:34 436.000
Cosmos 2499 06 May 03:29:38 03:36:08 39° 295° (WNW) 03:42:52 435.465 / 435.565
MOZHAYETS 4 06 May 03:30:19 03:34:11 28° 62° (ENE) 03:38:04
ITAMSAT 1 06 May 03:35:14 03:39:27 24° 92° (E) 03:43:39 435.822/435.867
BEESAT 3 06 May 03:39:15 03:42:38 27° 240° (WSW) 03:46:00 437.485
JAS-2 06 May 03:47:00 03:54:33 58° 295° (WNW) 04:02:12 435.910
GONETS M04 06 May 03:47:30 03:54:40 27° 307° (NW) 04:01:50
Oscar 19 06 May 03:48:18 03:53:29 64° 291° (WNW) 03:58:36 437.125/150
DANDE 06 May 03:48:59 03:55:17 53° 264° (W) 04:02:58 436.750
BEESAT 2 06 May 03:52:50 03:56:26 32° 238° (WSW) 03:59:59 435.950
YUBILEINY 06 May 04:09:00 04:15:07 20° 47° (NE) 04:21:12 435.215
Gurwin Techsat 1B 06 May 04:09:15 04:14:38 90° 101° (E) 04:19:58 435.225
AIST 2 06 May 04:13:31 04:17:36 52° 40° (NE) 04:21:40 435.215
CUSAT 1 06 May 04:19:43 04:25:09 23° 277° (W) 04:31:01 437.405
ITUPSAT 1 06 May 04:28:20 04:30:58 15° 273° (W) 04:33:37 437.325
SWISSCUBE 06 May 04:37:21 04:38:47 11° 276° (W) 04:40:13 437.505
KKS-1 06 May 04:39:06 04:43:30 52° 260° (W) 04:47:55 437.445
STARS 06 May 04:46:27 04:50:54 77° 257° (WSW) 04:55:22 437.465
AO-7 06 May 05:06:12 05:14:13 48° 100° (E) 05:22:13 29.400- 29.500
MOZHAYETS 4 06 May 05:06:48 05:11:12 46° 261° (W) 05:15:36
Cosmos 2491 06 May 05:07:48 05:11:07 13° 65° (ENE) 05:14:26 435.465 / 435.565
ITAMSAT 1 06 May 05:14:13 05:19:20 62° 291° (WNW) 05:24:27 435.822/435.867
CUBESAT XI-V 06 May 05:23:59 05:28:20 42° 67° (ENE) 05:32:43 437.345
Oscar 19 06 May 05:29:07 05:31:54 15° 311° (NW) 05:34:39 437.125/150
Cosmos 2499 06 May 05:30:36 05:31:57 10° 323° (NW) 05:33:18 435.465 / 435.565
Cosmos 2504 06 May 05:30:57 05:35:15 16° 47° (NE) 05:39:40 435.465 / 435.565
JAS-2 06 May 05:33:03 05:38:10 20° 316° (NW) 05:43:24 435.910
DANDE 06 May 05:34:25 05:37:08 13° 282° (WNW) 05:40:03 436.750
RS-15 06 May 05:36:35 05:48:47 72° 38° (NE) 06:01:11 29.354- 29.394
Gurwin Techsat 1B 06 May 05:50:11 05:53:57 20° 307° (NW) 05:57:42 435.225
HORYU 2 06 May 05:51:33 05:55:33 32° 96° (E) 05:59:31 437.375
AIST 2 06 May 05:52:20 05:55:54 28° 241° (WSW) 05:59:27 435.215
NOAA 15 06 May 06:01:41 06:02:45 11° 82° (E) 06:03:49 137.62
YUBILEINY 06 May 06:05:18 06:14:00 65° 73° (ENE) 06:22:38 435.215
NOAA 18 06 May 06:11:40 06:13:26 11° 83° (E) 06:15:11 137.9125
STARS 06 May 06:26:39 06:28:02 11° 275° (W) 06:29:26 437.465
STRAND 1 06 May 06:27:29 06:31:36 25° 58° (ENE) 06:35:43 437.568
GOMX 1 06 May 06:47:22 06:48:54 11° 79° (E) 06:50:23 467.674
ITAMSAT 1 06 May 06:55:16 06:57:53 14° 312° (NW) 07:00:30 435.822/435.867
Cosmos 2491 06 May 06:57:19 07:05:44 52° 89° (E) 07:14:11 435.465 / 435.565
AO-7 06 May 06:59:09 07:07:11 55° 302° (WNW) 07:15:12 29.400- 29.500
CUBESAT XI-V 06 May 07:01:49 07:05:52 30° 266° (W) 07:09:57 437.345
CUTE-I 06 May 07:07:50 07:12:16 26° 92° (E) 07:16:41 437.470
LilacSat-2 06 May 07:14:06 07:17:10 23° 93° (E) 07:20:13 437.200
Cosmos 2504 06 May 07:23:10 07:30:34 55° 72° (ENE) 07:38:28 435.465 / 435.565
HORYU 2 06 May 07:28:05 07:32:10 37° 295° (WNW) 07:36:13 437.375
BRITE-PL 06 May 07:28:46 07:34:13 43° 96° (E) 07:39:33 437.365/2234.400
NOAA 15 06 May 07:38:22 07:43:40 60° 102° (ESE) 07:48:55 137.62
SO-50 06 May 07:38:27 07:43:11 49° 125° (SE) 07:47:54 436.795
M-CUBED/EXP-1 PRIME 06 May 07:48:48 07:49:27 10° 90° (E) 07:50:06 437.505
RS-15 06 May 07:49:29 08:01:02 52° 245° (WSW) 08:12:40 29.354- 29.394
NOAA 18 06 May 07:49:46 07:55:13 63° 103° (ESE) 08:00:37 137.9125
Cubesat XI-IV 06 May 07:52:59 07:58:14 56° 101° (ESE) 08:03:28 437.490
DOVE 4 06 May 08:01:44 08:05:49 23° 89° (E) 08:09:42 437.250
YUBILEINY 06 May 08:02:39 08:10:22 37° 277° (W) 08:18:05 435.215
AUBIESAT-1 06 May 08:03:29 08:05:05 12° 92° (E) 08:06:39 437.475
STRAND 1 06 May 08:05:23 08:10:25 64° 257° (WSW) 08:15:30 437.568
ISS 06 May 08:17:09 08:20:10 34° 155° (SSE) 08:23:11 145.825
CINEMA 3 06 May 08:21:09 08:22:33 11° 82° (E) 08:23:58 145.822/145.860
GOMX 1 06 May 08:22:43 08:28:10 61° 100° (E) 08:33:20 467.674
PRISM 06 May 08:27:05 08:31:04 54° 70° (ENE) 08:35:07 437.425
CUTE-I 06 May 08:47:28 08:52:43 60° 292° (WNW) 08:57:57 437.470
LilacSat-2 06 May 08:48:04 08:51:39 39° 292° (WNW) 08:55:11 437.200
AO-7 06 May 08:52:40 08:58:18 21° 327° (NNW) 09:03:58 29.400- 29.500
CANX-2 06 May 08:53:04 08:56:23 22° 91° (E) 08:59:42 2200.000
Cosmos 2491 06 May 08:54:13 09:02:43 49° 293° (WNW) 09:11:17 435.465 / 435.565
ANTELSAT 06 May 09:07:19 09:09:14 13° 52° (NE) 09:11:08 437.575/2403.000
BRITE-PL 06 May 09:07:20 09:12:40 41° 296° (WNW) 09:17:54 437.365/2234.400
Cosmos 2504 06 May 09:16:54 09:23:47 40° 273° (W) 09:31:08 435.465 / 435.565
NOAA 15 06 May 09:18:40 09:23:08 28° 302° (WNW) 09:27:36 137.62
SO-50 06 May 09:19:05 09:23:48 43° 326° (NW) 09:28:29 436.795
M-CUBED/EXP-1 PRIME 06 May 09:20:47 09:24:49 87° 110° (ESE) 09:28:29 437.505
CUTE 1.7 + AOD 2 06 May 09:24:47 09:28:44 37° 97° (E) 09:32:41 437.475
HO-68 06 May 09:29:14 09:36:06 47° 99° (E) 09:42:58 435.675
NOAA 18 06 May 09:30:59 09:35:33 28° 303° (WNW) 09:40:06 137.9125
Cubesat XI-IV 06 May 09:33:30 09:38:04 30° 301° (WNW) 09:42:37 437.490
AUBIESAT-1 06 May 09:36:18 09:40:15 79° 293° (WNW) 09:43:53 437.475
DOVE 4 06 May 09:38:50 09:43:58 62° 290° (WNW) 09:48:47 437.250
COMPASS 1 06 May 09:42:17 09:46:02 32° 95° (E) 09:49:47 437.405
FUNcube-1 06 May 09:43:59 09:44:58 11° 84° (E) 09:45:56 145.935
SEEDS 06 May 09:45:27 09:49:30 45° 99° (E) 09:53:32 437.485
STRAND 1 06 May 09:49:33 09:50:39 11° 278° (W) 09:51:46 437.568
ISS 06 May 09:53:08 09:56:24 73° 175° (S) 09:59:40 145.825
GONETS M04 06 May 09:54:03 10:00:29 22° 48° (NE) 10:06:51
CINEMA 3 06 May 09:55:56 10:00:38 76° 102° (ESE) 10:05:04 145.822/145.860
UNISAT 6 06 May 09:59:11 10:03:11 30° 63° (ENE) 10:07:07 437.425
GOMX 1 06 May 10:01:16 10:05:53 28° 301° (WNW) 10:10:20 467.674
PRISM 06 May 10:03:45 10:06:44 19° 269° (W) 10:09:45 437.425
UWE-3 06 May 10:03:54 10:07:25 25° 92° (E) 10:10:53 435.000/436.395/437.385
RS-15 06 May 10:05:02 10:10:21 14° 270° (W) 10:15:40 29.354- 29.394
AAUSAT CUBESAT 2 06 May 10:09:22 10:13:24 47° 99° (E) 10:17:25 437.432
TIGRISAT 06 May 10:15:06 10:19:22 39° 66° (ENE) 10:23:34 435.000
CUBEBUG 2 06 May 10:18:46 10:22:58 46° 99° (E) 10:27:01 437.445
ZACube-1 06 May 10:26:12 10:29:52 28° 94° (E) 10:33:27 437.345
CANX-2 06 May 10:28:26 10:32:31 49° 290° (WNW) 10:36:37 2200.000
CUTE-I 06 May 10:29:07 10:31:47 14° 313° (NW) 10:34:27 437.470
NANOSAT C BR1 06 May 10:34:09 10:36:48 16° 56° (ENE) 10:39:29 145.865
ANTELSAT 06 May 10:40:37 10:45:10 66° 72° (ENE) 10:49:39 437.575/2403.000
JAS-2 06 May 10:41:05 10:43:35 12° 32° (NNE) 10:46:09 435.910
AO-7 06 May 10:45:38 10:48:01 11° 354° (N) 10:50:24 29.400- 29.500
BRITE-PL 06 May 10:48:25 10:49:45 11° 316° (NW) 10:51:04 437.365/2234.400
DELFI C3 06 May 10:53:13 10:56:46 30° 95° (E) 11:00:19 145.870
M-CUBED/EXP-1 PRIME 06 May 10:56:24 10:58:46 15° 313° (NW) 11:01:01 437.505
Cosmos 2491 06 May 10:57:21 11:02:21 16° 321° (NW) 11:07:24 435.465 / 435.565
HUMSAT D 06 May 10:58:14 11:01:00 17° 90° (E) 11:03:45 437.325/437.525
Oscar 11 06 May 11:00:43 11:05:02 67° 102° (ESE) 11:09:19 145.826/435.025
CUTE 1.7 + AOD 2 06 May 11:00:50 11:04:30 29° 296° (WNW) 11:08:11 437.475
SO-50 06 May 11:01:38 11:05:26 22° 349° (N) 11:09:11 436.795
AUBIESAT-1 06 May 11:12:11 11:14:03 13° 314° (NW) 11:15:52 437.475
HO-68 06 May 11:17:07 11:23:55 48° 300° (WNW) 11:30:42 435.675
FUNcube-1 06 May 11:17:45 11:22:00 82° 106° (ESE) 11:26:08 145.935
COMPASS 1 06 May 11:17:53 11:21:38 33° 294° (WNW) 11:25:23 437.405
DOVE 4 06 May 11:18:07 11:20:39 14° 311° (NW) 11:23:08 437.250
Cosmos 2499 06 May 11:18:18 11:24:58 31° 61° (ENE) 11:32:00 435.465 / 435.565
SEEDS 06 May 11:21:35 11:25:01 25° 298° (WNW) 11:28:27 437.485
DUCHIFAT 1 06 May 11:23:09 11:27:05 38° 66° (ENE) 11:31:03 145.980
AIST 1 06 May 11:24:23 11:28:41 47° 73° (ENE) 11:32:57
QB50P2 06 May 11:28:33 11:32:41 48° 69° (ENE) 11:36:49 145.880/145.840
ISS 06 May 11:29:33 11:32:46 57° 195° (SSW) 11:35:59 145.825
POLYITAN 1 06 May 11:30:45 11:34:53 48° 69° (ENE) 11:39:02 437.675
POPSAT HIP 1 06 May 11:32:20 11:36:28 49° 69° (ENE) 11:40:37 437.405
CINEMA 3 06 May 11:33:59 11:37:13 19° 304° (NW) 11:40:22 145.822/145.860
QB50P1 06 May 11:35:09 11:39:19 52° 70° (ENE) 11:43:30 145.935-145.965
UNISAT 6 06 May 11:35:26 11:39:48 42° 262° (W) 11:44:06 437.425
UWE-3 06 May 11:40:03 11:44:07 43° 292° (WNW) 11:48:04 435.000/436.395/437.385
AAUSAT CUBESAT 2 06 May 11:45:22 11:48:40 24° 298° (WNW) 11:51:59 437.432
BUGSAT 1 06 May 11:49:29 11:53:24 36° 66° (ENE) 11:57:20 437.445
GONETS M04 06 May 11:50:28 11:59:16 69° 75° (ENE) 12:07:57
TIGRISAT 06 May 11:52:00 11:56:08 32° 265° (W) 12:00:12 435.000
CUBEBUG 2 06 May 11:55:50 11:59:23 25° 299° (WNW) 12:02:52 437.445
Oscar 19 06 May 11:56:09 11:58:39 14° 48° (NE) 12:01:09 437.125/150
CUBEBUG 1 06 May 11:56:39 11:58:22 12° 85° (E) 12:00:04 437.445
ZACube-1 06 May 12:02:22 12:06:17 37° 294° (WNW) 12:10:07 437.345
ESTCUBE 1 06 May 12:02:51 12:06:04 19° 90° (E) 12:09:17 437.505/2401.250
NANOSAT C BR1 06 May 12:07:44 12:12:01 82° 254° (WSW) 12:16:20 145.865
UKube-1 06 May 12:17:04 12:19:11 13° 87° (E) 12:21:18 .
DX 1 06 May 12:17:05 12:19:49 16° 89° (E) 12:22:33 434.975-435.025
ANTELSAT 06 May 12:19:04 12:22:19 19° 270° (W) 12:25:32 437.575/2403.000
JAS-2 06 May 12:20:42 12:26:32 36° 56° (NE) 12:32:59 435.910
Gurwin Techsat 1B 06 May 12:21:47 12:23:13 11° 44° (NE) 12:24:40 435.225
DELFI C3 06 May 12:28:06 12:31:41 33° 294° (WNW) 12:35:16 145.870
VELOX 1 06 May 12:32:31 12:36:13 25° 93° (E) 12:39:54 145.980
HUMSAT D 06 May 12:33:00 12:37:02 60° 289° (WNW) 12:41:03 437.325/437.525
AO-7 06 May 12:33:19 12:37:24 15° 21° (NNE) 12:41:28 29.400- 29.500
Oscar 11 06 May 12:37:42 12:40:45 19° 302° (WNW) 12:43:47 145.826/435.025
SPROUT 06 May 12:40:00 12:41:59 13° 86° (E) 12:43:57 437.525
SO-50 06 May 12:43:36 12:47:26 23° 13° (NNE) 12:51:13 436.795
50 SAT 06 May 12:54:42 12:58:12 41° 99° (E) 13:01:42 437.505
FUNcube-1 06 May 12:55:11 12:57:42 16° 304° (NW) 13:00:10 145.935
DUCHIFAT 1 06 May 12:59:09 13:02:53 29° 265° (W) 13:06:39 145.980
AO-85 06 May 13:00:08 13:05:19 45° 123° (ESE) 13:10:23 145.980
AIST 1 06 May 13:02:32 13:06:01 23° 273° (W) 13:09:29
AISAT 06 May 13:04:47 13:09:11 49° 100° (E) 13:13:30 437.250
QB50P2 06 May 13:05:16 13:08:44 23° 268° (W) 13:12:12 145.880/145.840
HO-68 06 May 13:06:04 13:10:04 16° 323° (NW) 13:14:05 435.675
ISS 06 May 13:06:20 13:08:48 20° 214° (SSW) 13:11:16 145.825
POLYITAN 1 06 May 13:07:30 13:10:57 23° 268° (W) 13:14:24 437.675
POPSAT HIP 1 06 May 13:09:05 13:12:31 23° 268° (W) 13:15:58 437.405
Cosmos 2499 06 May 13:11:09 13:18:51 77° 263° (W) 13:27:08 435.465 / 435.565
QB50P1 06 May 13:12:06 13:15:24 21° 268° (W) 13:18:43 145.935-145.965
ITAMSAT 1 06 May 13:22:34 13:25:22 15° 49° (NE) 13:28:08 435.822/435.867
BUGSAT 1 06 May 13:25:04 13:28:50 30° 265° (W) 13:32:39 437.445
CUBEBUG 1 06 May 13:30:55 13:35:25 82° 106° (ESE) 13:39:51 437.445
Oscar 19 06 May 13:31:54 13:37:00 59° 69° (ENE) 13:42:08 437.125/150
ESTCUBE 1 06 May 13:38:49 13:43:21 66° 289° (WNW) 13:47:51 437.505/2401.250
NANOSAT C BR1 06 May 13:47:06 13:48:29 11° 275° (W) 13:49:52 145.865
GONETS M04 06 May 13:47:55 13:55:31 35° 278° (W) 14:03:04
UKube-1 06 May 13:51:29 13:55:52 88° 295° (WNW) 14:00:14 .
DX 1 06 May 13:52:08 13:56:33 74° 287° (WNW) 14:00:56 434.975-435.025
Gurwin Techsat 1B 06 May 13:56:55 14:01:58 46° 65° (ENE) 14:07:03 435.225
JAS-2 06 May 14:04:53 14:11:10 63° 260° (W) 14:18:22 435.910
VELOX 1 06 May 14:08:36 14:12:56 48° 292° (WNW) 14:17:14 145.980
SPROUT 06 May 14:14:15 14:18:36 89° 292° (WNW) 14:22:54 437.525
O/OREOS (USA 219) 06 May 14:15:20 14:18:19 17° 101° (E) 14:21:17 437.305
AO-7 06 May 14:20:39 14:27:48 34° 47° (NE) 14:34:59 29.400- 29.500
SO-50 06 May 14:24:15 14:28:58 50° 37° (NE) 14:33:32 436.795
50 SAT 06 May 14:28:58 14:31:48 21° 298° (WNW) 14:34:38 437.505
TISAT 1 06 May 14:34:03 14:38:11 49° 99° (E) 14:42:17 437.305
AO-85 06 May 14:40:34 14:45:53 50° 323° (NW) 14:51:01 145.980
AISAT 06 May 14:41:43 14:45:26 26° 299° (WNW) 14:49:09 437.250
ITUPSAT 1 06 May 14:43:16 14:46:06 15° 87° (E) 14:48:56 437.325
SWISSCUBE 06 May 14:50:09 14:53:37 20° 90° (E) 14:57:03 437.505
ITAMSAT 1 06 May 14:58:49 15:03:57 65° 69° (ENE) 15:09:05 435.822/435.867
Cosmos 2491 06 May 15:04:12 15:07:32 12° 32° (NNE) 15:10:51 435.465 / 435.565
Cosmos 2499 06 May 15:05:42 15:10:49 20° 284° (WNW) 15:16:10 435.465 / 435.565
CUBEBUG 1 06 May 15:08:15 15:11:09 17° 304° (NW) 15:14:03 437.445
Oscar 19 06 May 15:12:27 15:16:42 25° 268° (W) 15:21:01 437.125/150
ESTCUBE 1 06 May 15:17:25 15:19:21 13° 309° (NW) 15:21:17 437.505/2401.250
HORYU 2 06 May 15:22:00 15:23:37 12° 50° (NE) 15:25:14 437.375
BEESAT 06 May 15:22:22 15:26:40 33° 96° (E) 15:30:57 436.000
DANDE 06 May 15:25:20 15:27:36 16° 81° (E) 15:30:14 436.750
PCSat 06 May 15:27:03 15:31:40 29° 112° (ESE) 15:36:18 145.827
UKube-1 06 May 15:28:49 15:31:19 15° 306° (NW) 15:33:49 .
DX 1 06 May 15:29:53 15:32:01 13° 308° (NW) 15:34:09 434.975-435.025
Gurwin Techsat 1B 06 May 15:37:16 15:42:05 34° 265° (W) 15:46:56 435.225
CUSAT 1 06 May 15:47:14 15:51:21 68° 98° (E) 15:56:53 437.405
SPROUT 06 May 15:51:31 15:53:56 15° 305° (NW) 15:56:22 437.525
O/OREOS (USA 219) 06 May 15:52:33 15:57:09 77° 300° (WNW) 16:01:47 437.305
JAS-2 06 May 15:54:39 15:57:56 14° 283° (WNW) 16:01:24 435.910
SO-50 06 May 16:05:00 16:09:23 37° 239° (WSW) 16:13:38 436.795
NOAA 18 06 May 16:07:09 16:08:02 10° 40° (NE) 16:08:56 137.9125
TISAT 1 06 May 16:10:13 16:13:37 24° 299° (WNW) 16:17:00 437.305
AO-7 06 May 16:11:36 16:19:54 83° 250° (WSW) 16:28:17 29.400- 29.500
ITUPSAT 1 06 May 16:19:48 16:24:37 86° 283° (WNW) 16:29:24 437.325
AO-85 06 May 16:23:10 16:27:30 24° 346° (NNW) 16:31:38 145.980
KKS-1 06 May 16:24:35 16:27:55 20° 91° (E) 16:31:14 437.445
SWISSCUBE 06 May 16:27:09 16:31:54 68° 289° (WNW) 16:36:38 437.505
STARS 06 May 16:31:27 16:33:35 13° 87° (E) 16:35:41 437.465
